Time,TemperatureF,DewpointF,PressureIn,WindDirection,WindDirectionDegrees,WindSpeedMPH,WindSpeedGustMPH,Humidity,HourlyPrecipIn,Conditions,Clouds,dailyrainin,SoftwareType,DateUTC
2013-03-17 00:00:00,12.1,4.5,30.21,NW,326,4.0,6.0,71,0.00,,---,0.00,VWS V13.01,2013-03-17 05:00:00,
2013-03-17 00:06:00,12.0,4.4,30.20,NNW,342,2.0,4.0,71,0.00,,---,0.00,VWS V13.01,2013-03-17 05:06:00,
2013-03-17 00:11:00,11.9,4.3,30.21,NNW,342,4.0,5.0,71,0.00,,---,0.00,VWS V13.01,2013-03-17 05:11:00,
2013-03-17 00:16:00,11.7,4.1,30.21,NNW,342,3.0,6.0,71,0.00,,---,0.00,VWS V13.01,2013-03-17 05:16:00,
2013-03-17 00:21:00,11.6,4.3,30.21,NW,309,3.0,6.0,72,0.00,,---,0.00,VWS V13.01,2013-03-17 05:21:00,
2013-03-17 00:26:00,11.4,4.4,30.21,NNW,342,4.0,6.0,73,0.00,,---,0.00,VWS V13.01,2013-03-17 05:26:00,
2013-03-17 00:31:00,11.3,4.3,30.22,NNW,333,2.0,7.0,73,0.00,,---,0.00,VWS V13.01,2013-03-17 05:31:00,
2013-03-17 00:36:00,11.1,4.4,30.22,NNW,331,2.0,4.0,74,0.00,,---,0.00,VWS V13.01,2013-03-17 05:36:00,
2013-03-17 00:41:00,11.0,4.6,30.22,North,355,2.0,4.0,75,0.00,,---,0.00,VWS V13.01,2013-03-17 05:41:00,
2013-03-17 00:46:00,10.8,4.4,30.22,North,355,1.0,4.0,75,0.00,,---,0.00,VWS V13.01,2013-03-17 05:46:00,
2013-03-17 00:51:00,10.6,4.5,30.23,North,355,1.0,4.0,76,0.00,,---,0.00,VWS V13.01,2013-03-17 05:51:00,
2013-03-17 00:56:00,10.5,4.4,30.23,North,355,0.0,4.0,76,0.00,,---,0.00,VWS V13.01,2013-03-17 05:56:00,
2013-03-17 01:01:00,10.4,4.6,30.23,North,355,1.0,4.0,77,0.00,,---,0.00,VWS V13.01,2013-03-17 06:01:00,
2013-03-17 01:07:00,10.4,4.6,30.23,NNW,344,2.0,5.0,77,0.00,,---,0.00,VWS V13.01,2013-03-17 06:07:00,
2013-03-17 01:12:00,10.4,4.3,30.24,NNW,341,3.0,6.0,76,0.00,,---,0.00,VWS V13.01,2013-03-17 06:12:00,
2013-03-17 01:17:00,10.3,4.0,30.24,NNW,348,2.0,6.0,75,0.00,,---,0.00,VWS V13.01,2013-03-17 06:17:00,
2013-03-17 01:22:00,10.2,3.9,30.24,NNW,342,2.0,6.0,75,0.00,,---,0.00,VWS V13.01,2013-03-17 06:22:00,
2013-03-17 01:27:00,10.0,3.4,30.25,NNW,344,3.0,6.0,74,0.00,,---,0.00,VWS V13.01,2013-03-17 06:27:00,
2013-03-17 01:32:00,9.9,3.6,30.25,NNW,346,2.0,6.0,75,0.00,,---,0.00,VWS V13.01,2013-03-17 06:32:00,
2013-03-17 01:37:00,9.9,3.6,30.25,North,355,2.0,7.0,75,0.00,,---,0.00,VWS V13.01,2013-03-17 06:37:00,
2013-03-17 01:42:00,9.6,3.3,30.26,North,350,5.0,7.0,75,0.00,,---,0.00,VWS V13.01,2013-03-17 06:42:00,
2013-03-17 01:47:00,9.5,3.2,30.26,North,355,2.0,7.0,75,0.00,,---,0.00,VWS V13.01,2013-03-17 06:47:00,
2013-03-17 01:52:00,9.3,3.0,30.26,North,355,1.0,7.0,75,0.00,,---,0.00,VWS V13.01,2013-03-17 06:52:00,
2013-03-17 01:57:00,9.1,2.8,30.27,NNW,348,1.0,7.0,75,0.00,,---,0.00,VWS V13.01,2013-03-17 06:57:00,
2013-03-17 02:02:00,9.0,2.7,30.27,NNW,348,0.0,0.0,75,0.00,,---,0.00,VWS V13.01,2013-03-17 07:02:00,
2013-03-17 02:07:00,8.8,2.8,30.27,NNW,348,0.0,1.0,76,0.00,,---,0.00,VWS V13.01,2013-03-17 07:07:00,
2013-03-17 02:12:00,8.6,2.6,30.28,NNW,348,1.0,2.0,76,0.00,,---,0.00,VWS V13.01,2013-03-17 07:12:00,
2013-03-17 02:17:00,8.5,2.8,30.28,NNW,348,0.0,2.0,77,0.00,,---,0.00,VWS V13.01,2013-03-17 07:17:00,
2013-03-17 02:22:00,8.3,2.9,30.28,NNW,348,0.0,2.0,78,0.00,,---,0.00,VWS V13.01,2013-03-17 07:22:00,
2013-03-17 02:27:00,8.3,2.9,30.28,NNW,348,0.0,2.0,78,0.00,,---,0.00,VWS V13.01,2013-03-17 07:27:00,
2013-03-17 02:32:00,8.2,2.8,30.28,NNW,348,0.0,0.0,78,0.00,,---,0.00,VWS V13.01,2013-03-17 07:32:00,
2013-03-17 02:37:00,8.1,2.7,30.28,NNW,348,0.0,2.0,78,0.00,,---,0.00,VWS V13.01,2013-03-17 07:37:00,
2013-03-17 02:42:00,7.8,2.1,30.29,NNW,348,1.0,3.0,77,0.00,,---,0.00,VWS V13.01,2013-03-17 07:42:00,
2013-03-17 02:47:00,7.6,1.9,30.29,North,349,1.0,3.0,77,0.00,,---,0.00,VWS V13.01,2013-03-17 07:47:00,
2013-03-17 02:52:00,7.3,1.6,30.29,North,349,1.0,3.0,77,0.00,,---,0.00,VWS V13.01,2013-03-17 07:52:00,
2013-03-17 02:57:00,7.2,1.5,30.29,North,349,0.0,3.0,77,0.00,,---,0.00,VWS V13.01,2013-03-17 07:57:00,
2013-03-17 03:03:00,7.1,1.1,30.29,North,350,0.0,0.0,76,0.00,,---,0.00,VWS V13.01,2013-03-17 08:03:00,
2013-03-17 03:08:00,6.9,0.9,30.29,North,350,0.0,1.0,76,0.00,,---,0.00,VWS V13.01,2013-03-17 08:08:00,
2013-03-17 03:13:00,6.8,0.9,30.29,North,349,0.0,1.0,76,0.00,,---,0.00,VWS V13.01,2013-03-17 08:13:00,
2013-03-17 03:18:00,6.6,0.7,30.30,North,350,0.0,1.0,76,0.00,,---,0.00,VWS V13.01,2013-03-17 08:18:00,
2013-03-17 03:23:00,6.5,0.6,30.30,North,350,0.0,1.0,76,0.00,,---,0.00,VWS V13.01,2013-03-17 08:23:00,
2013-03-17 03:28:00,6.4,0.5,30.30,North,349,0.0,1.0,76,0.00,,---,0.00,VWS V13.01,2013-03-17 08:28:00,
2013-03-17 03:33:00,6.4,0.5,30.30,North,349,0.0,0.0,76,0.00,,---,0.00,VWS V13.01,2013-03-17 08:33:00,
2013-03-17 03:38:00,6.2,0.3,30.30,North,350,0.0,0.0,76,0.00,,---,0.00,VWS V13.01,2013-03-17 08:38:00,
2013-03-17 03:43:00,6.1,-0.1,30.30,North,350,0.0,0.0,75,0.00,,---,0.00,VWS V13.01,2013-03-17 08:43:00,
2013-03-17 03:48:00,6.0,0.1,30.30,North,350,0.0,0.0,76,0.00,,---,0.00,VWS V13.01,2013-03-17 08:48:00,
2013-03-17 03:53:00,5.8,-0.4,30.30,North,350,0.0,0.0,75,0.00,,---,0.00,VWS V13.01,2013-03-17 08:53:00,
2013-03-17 03:58:00,5.4,-1.1,30.30,North,350,0.0,0.0,74,0.00,,---,0.00,VWS V13.01,2013-03-17 08:58:00,
2013-03-17 04:03:00,4.9,0.6,30.30,North,350,0.0,0.0,82,0.00,,---,0.00,VWS V13.01,2013-03-17 09:03:00,
2013-03-17 04:08:00,4.5,-2.2,30.30,North,349,0.0,0.0,73,0.00,,---,0.00,VWS V13.01,2013-03-17 09:08:00,
2013-03-17 04:13:00,4.1,-2.3,30.30,North,349,0.0,0.0,74,0.00,,---,0.00,VWS V13.01,2013-03-17 09:13:00,
2013-03-17 04:18:00,3.6,-2.8,30.31,North,350,0.0,0.0,74,0.00,,---,0.00,VWS V13.01,2013-03-17 09:18:00,
2013-03-17 04:23:00,3.1,-3.0,30.31,North,350,0.0,0.0,75,0.00,,---,0.00,VWS V13.01,2013-03-17 09:23:00,
2013-03-17 04:28:00,2.7,-3.4,30.31,North,349,0.0,0.0,75,0.00,,---,0.00,VWS V13.01,2013-03-17 09:28:00,
2013-03-17 04:33:00,2.0,-4.1,30.31,North,349,0.0,0.0,75,0.00,,---,0.00,VWS V13.01,2013-03-17 09:33:00,
2013-03-17 04:38:00,1.7,-4.4,30.31,North,350,0.0,0.0,75,0.00,,---,0.00,VWS V13.01,2013-03-17 09:38:00,
2013-03-17 04:43:00,1.4,-4.4,30.31,North,349,0.0,0.0,76,0.00,,---,0.00,VWS V13.01,2013-03-17 09:43:00,
2013-03-17 04:48:00,1.1,-4.7,30.31,North,349,0.0,0.0,76,0.00,,---,0.00,VWS V13.01,2013-03-17 09:48:00,
2013-03-17 04:53:00,0.9,-4.9,30.31,North,350,0.0,0.0,76,0.00,,---,0.00,VWS V13.01,2013-03-17 09:53:00,
2013-03-17 04:58:00,0.5,-5.3,30.31,North,350,0.0,0.0,76,0.00,,---,0.00,VWS V13.01,2013-03-17 09:58:00,
2013-03-17 05:03:00,0.2,-5.6,30.32,North,350,0.0,0.0,76,0.00,,---,0.00,VWS V13.01,2013-03-17 10:03:00,
2013-03-17 05:08:00,-0.1,-5.8,30.32,North,349,0.0,0.0,76,0.00,,---,0.00,VWS V13.01,2013-03-17 10:08:00,
2013-03-17 05:13:00,-0.4,-6.1,30.32,North,350,0.0,0.0,76,0.00,,---,0.00,VWS V13.01,2013-03-17 10:13:00,
2013-03-17 05:18:00,-0.8,-6.8,30.32,North,350,0.0,0.0,75,0.00,,---,0.00,VWS V13.01,2013-03-17 10:18:00,
2013-03-17 05:24:00,-1.2,-7.5,30.32,North,350,0.0,0.0,74,0.00,,---,0.00,VWS V13.01,2013-03-17 10:24:00,
2013-03-17 05:29:00,-1.6,-7.8,30.32,North,349,0.0,0.0,74,0.00,,---,0.00,VWS V13.01,2013-03-17 10:29:00,
2013-03-17 05:34:00,-2.1,-8.1,30.32,North,350,0.0,0.0,75,0.00,,---,0.00,VWS V13.01,2013-03-17 10:34:00,
2013-03-17 05:39:00,-2.4,-8.4,30.32,North,350,0.0,0.0,75,0.00,,---,0.00,VWS V13.01,2013-03-17 10:39:00,
2013-03-17 05:44:00,-2.6,-8.3,30.32,North,349,0.0,0.0,76,0.00,,---,0.00,VWS V13.01,2013-03-17 10:44:00,
2013-03-17 05:49:00,-2.8,-8.5,30.33,North,349,0.0,0.0,76,0.00,,---,0.00,VWS V13.01,2013-03-17 10:49:00,
2013-03-17 05:54:00,-3.1,-8.5,30.33,North,350,0.0,0.0,77,0.00,,---,0.00,VWS V13.01,2013-03-17 10:54:00,
2013-03-17 05:59:00,-3.3,-8.7,30.33,North,350,0.0,0.0,77,0.00,,---,0.00,VWS V13.01,2013-03-17 10:59:00,
2013-03-17 06:04:00,-3.5,-9.1,30.33,North,350,0.0,0.0,76,0.00,,---,0.00,VWS V13.01,2013-03-17 11:04:00,
2013-03-17 06:09:00,-3.9,-9.5,30.33,North,349,0.0,0.0,76,0.00,,---,0.00,VWS V13.01,2013-03-17 11:09:00,
2013-03-17 06:14:00,-4.3,-9.9,30.33,North,350,0.0,0.0,76,0.00,,---,0.00,VWS V13.01,2013-03-17 11:14:00,
2013-03-17 06:19:00,-4.6,-10.2,30.33,North,349,0.0,0.0,76,0.00,,---,0.00,VWS V13.01,2013-03-17 11:19:00,
2013-03-17 06:24:00,-4.8,-10.4,30.33,North,349,0.0,0.0,76,0.00,,---,0.00,VWS V13.01,2013-03-17 11:24:00,
2013-03-17 06:29:00,-5.0,-10.6,30.33,North,350,0.0,0.0,76,0.00,,---,0.00,VWS V13.01,2013-03-17 11:29:00,
2013-03-17 06:34:00,-5.3,-10.9,30.33,North,350,0.0,0.0,76,0.00,,---,0.00,VWS V13.01,2013-03-17 11:34:00,
2013-03-17 06:39:00,-5.6,-10.9,30.33,North,350,0.0,0.0,77,0.00,,---,0.00,VWS V13.01,2013-03-17 11:39:00,
2013-03-17 06:44:00,-5.8,-11.4,30.33,North,349,0.0,0.0,76,0.00,,---,0.00,VWS V13.01,2013-03-17 11:44:00,
2013-03-17 06:49:00,-6.1,-11.9,30.33,North,350,0.0,0.0,75,0.00,,---,0.00,VWS V13.01,2013-03-17 11:49:00,
2013-03-17 06:54:00,-6.4,-12.2,30.33,North,350,0.0,0.0,75,0.00,,---,0.00,VWS V13.01,2013-03-17 11:54:00,
2013-03-17 06:59:00,-6.5,-12.1,30.33,North,350,0.0,0.0,76,0.00,,---,0.00,VWS V13.01,2013-03-17 11:59:00,
2013-03-17 07:04:00,-6.7,-12.3,30.33,North,349,0.0,0.0,76,0.00,,---,0.00,VWS V13.01,2013-03-17 12:04:00,
2013-03-17 07:09:00,-6.8,-12.4,30.33,North,350,0.0,0.0,76,0.00,,---,0.00,VWS V13.01,2013-03-17 12:09:00,
2013-03-17 07:14:00,-7.0,-12.3,30.34,North,350,0.0,0.0,77,0.00,,---,0.00,VWS V13.01,2013-03-17 12:14:00,
2013-03-17 07:19:00,-7.0,-12.3,30.34,North,349,0.0,0.0,77,0.00,,---,0.00,VWS V13.01,2013-03-17 12:19:00,
2013-03-17 07:24:00,-7.2,-12.5,30.33,North,349,0.0,0.0,77,0.00,,---,0.00,VWS V13.01,2013-03-17 12:24:00,
2013-03-17 07:29:00,-7.3,-12.6,30.34,North,350,0.0,0.0,77,0.00,,---,0.00,VWS V13.01,2013-03-17 12:29:00,
2013-03-17 07:34:00,-7.5,-12.8,30.34,North,349,0.0,0.0,77,0.00,,---,0.00,VWS V13.01,2013-03-17 12:34:00,
2013-03-17 07:39:00,-7.6,-12.9,30.34,North,349,0.0,0.0,77,0.00,,---,0.00,VWS V13.01,2013-03-17 12:39:00,
2013-03-17 07:44:00,-7.6,-12.9,30.34,North,350,0.0,0.0,77,0.00,,---,0.00,VWS V13.01,2013-03-17 12:44:00,
2013-03-17 07:49:00,-7.7,-13.0,30.34,North,350,0.0,0.0,77,0.00,,---,0.00,VWS V13.01,2013-03-17 12:49:00,
2013-03-17 07:54:00,-7.7,-13.0,30.34,North,350,0.0,0.0,77,0.00,,---,0.00,VWS V13.01,2013-03-17 12:54:00,
2013-03-17 07:59:00,-7.6,-12.9,30.34,North,349,0.0,0.0,77,0.00,,---,0.00,VWS V13.01,2013-03-17 12:59:00,
2013-03-17 08:04:00,-7.6,-12.9,30.34,North,350,0.0,0.0,77,0.00,,---,0.00,VWS V13.01,2013-03-17 13:04:00,
2013-03-17 08:09:00,-7.4,-12.4,30.34,North,350,0.0,0.0,78,0.00,,---,0.00,VWS V13.01,2013-03-17 13:09:00,
2013-03-17 08:14:00,-7.2,-12.2,30.35,North,349,0.0,0.0,78,0.00,,---,0.00,VWS V13.01,2013-03-17 13:14:00,
2013-03-17 08:19:00,-6.4,-11.4,30.35,North,349,0.0,0.0,78,0.00,,---,0.00,VWS V13.01,2013-03-17 13:19:00,
2013-03-17 08:24:00,-5.9,-11.0,30.35,North,350,0.0,0.0,78,0.00,,---,0.00,VWS V13.01,2013-03-17 13:24:00,
2013-03-17 08:29:00,-5.2,-10.3,30.35,North,350,0.0,0.0,78,0.00,,---,0.00,VWS V13.01,2013-03-17 13:29:00,
2013-03-17 08:34:00,-4.1,-8.9,30.35,North,350,0.0,0.0,79,0.00,,---,0.00,VWS V13.01,2013-03-17 13:34:00,
2013-03-17 08:39:00,-2.8,-7.7,30.36,North,349,0.0,0.0,79,0.00,,---,0.00,VWS V13.01,2013-03-17 13:39:00,
2013-03-17 08:44:00,-1.9,-6.8,30.36,North,350,0.0,0.0,79,0.00,,---,0.00,VWS V13.01,2013-03-17 13:44:00,
2013-03-17 08:49:00,-0.7,-5.6,30.36,North,350,0.0,0.0,79,0.00,,---,0.00,VWS V13.01,2013-03-17 13:49:00,
2013-03-17 08:54:00,0.5,-4.5,30.36,North,349,0.0,0.0,79,0.00,,---,0.00,VWS V13.01,2013-03-17 13:54:00,
2013-03-17 08:59:00,1.6,-3.9,30.36,North,350,0.0,0.0,77,0.00,,---,0.00,VWS V13.01,2013-03-17 13:59:00,
2013-03-17 09:04:00,3.5,-2.3,30.36,North,350,0.0,1.0,76,0.00,,---,0.00,VWS V13.01,2013-03-17 14:04:00,
2013-03-17 09:09:00,5.1,-1.4,30.36,North,350,0.0,2.0,74,0.00,,---,0.00,VWS V13.01,2013-03-17 14:09:00,
2013-03-17 09:14:00,5.9,-1.5,30.36,North,350,1.0,2.0,71,0.00,,---,0.00,VWS V13.01,2013-03-17 14:14:00,
2013-03-17 09:19:00,6.4,-1.6,30.36,ENE,74,2.0,3.0,69,0.00,,---,0.00,VWS V13.01,2013-03-17 14:19:00,
2013-03-17 09:24:00,6.8,-1.8,30.36,ENE,63,1.0,3.0,67,0.00,,---,0.00,VWS V13.01,2013-03-17 14:24:00,
2013-03-17 09:29:00,7.5,-1.5,30.35,East,91,2.0,4.0,66,0.00,,---,0.00,VWS V13.01,2013-03-17 14:29:00,
2013-03-17 09:34:00,8.1,-1.2,30.36,NNE,30,0.0,2.0,65,0.00,,---,0.00,VWS V13.01,2013-03-17 14:34:00,
2013-03-17 09:40:00,8.5,-1.5,30.36,East,87,1.0,2.0,63,0.00,,---,0.00,VWS V13.01,2013-03-17 14:40:00,
2013-03-17 09:45:00,8.4,-1.6,30.36,ESE,103,0.0,2.0,63,0.00,,---,0.00,VWS V13.01,2013-03-17 14:45:00,
2013-03-17 09:50:00,8.7,-1.6,30.36,East,84,0.0,4.0,62,0.00,,---,0.00,VWS V13.01,2013-03-17 14:50:00,
2013-03-17 09:55:00,9.1,-1.6,30.36,ENE,61,4.0,4.0,61,0.00,,---,0.00,VWS V13.01,2013-03-17 14:55:00,
2013-03-17 10:00:00,9.0,-1.7,30.35,East,84,0.0,4.0,61,0.00,,---,0.00,VWS V13.01,2013-03-17 15:00:00,
2013-03-17 10:05:00,9.2,-1.5,30.35,NE,52,0.0,1.0,61,0.00,,---,0.00,VWS V13.01,2013-03-17 15:05:00,
2013-03-17 10:10:00,9.7,-1.4,30.35,SSE,163,1.0,4.0,60,0.00,,---,0.00,VWS V13.01,2013-03-17 15:10:00,
2013-03-17 10:15:00,10.3,-0.5,30.35,SSW,198,2.0,4.0,61,0.00,,---,0.00,VWS V13.01,2013-03-17 15:15:00,
2013-03-17 10:20:00,10.4,-0.7,30.35,SSW,194,0.0,6.0,60,0.00,,---,0.00,VWS V13.01,2013-03-17 15:20:00,
2013-03-17 10:25:00,10.5,-1.0,30.36,ENE,67,2.0,6.0,59,0.00,,---,0.00,VWS V13.01,2013-03-17 15:25:00,
2013-03-17 10:30:00,10.5,-1.0,30.36,East,80,2.0,6.0,59,0.00,,---,0.00,VWS V13.01,2013-03-17 15:30:00,
2013-03-17 10:35:00,10.8,-0.7,30.36,ENE,61,3.0,4.0,59,0.00,,---,0.00,VWS V13.01,2013-03-17 15:35:00,
2013-03-17 10:40:00,11.3,-0.2,30.36,ENE,61,2.0,4.0,59,0.00,,---,0.00,VWS V13.01,2013-03-17 15:40:00,
2013-03-17 10:45:00,11.7,-0.2,30.36,NE,49,2.0,4.0,58,0.00,,---,0.00,VWS V13.01,2013-03-17 15:45:00,
2013-03-17 10:50:00,12.3,0.0,30.35,South,187,2.0,4.0,57,0.00,,---,0.00,VWS V13.01,2013-03-17 15:50:00,
2013-03-17 10:55:00,12.6,0.3,30.36,SSE,163,0.0,5.0,57,0.00,,---,0.00,VWS V13.01,2013-03-17 15:55:00,
2013-03-17 11:00:00,13.1,0.4,30.35,South,171,3.0,5.0,56,0.00,,---,0.00,VWS V13.01,2013-03-17 16:00:00,
2013-03-17 11:05:00,13.7,0.9,30.36,SE,141,1.0,4.0,56,0.00,,---,0.00,VWS V13.01,2013-03-17 16:05:00,
2013-03-17 11:10:00,13.2,0.4,30.36,South,183,3.0,5.0,56,0.00,,---,0.00,VWS V13.01,2013-03-17 16:10:00,
2013-03-17 11:15:00,13.4,1.0,30.35,South,170,4.0,6.0,57,0.00,,---,0.00,VWS V13.01,2013-03-17 16:15:00,
2013-03-17 11:20:00,13.3,0.2,30.36,SSE,148,3.0,11.0,55,0.00,,---,0.00,VWS V13.01,2013-03-17 16:20:00,
2013-03-17 11:25:00,13.7,1.3,30.36,South,183,0.0,11.0,57,0.00,,---,0.00,VWS V13.01,2013-03-17 16:25:00,
2013-03-17 11:30:00,14.4,0.8,30.36,South,173,1.0,11.0,54,0.00,,---,0.00,VWS V13.01,2013-03-17 16:30:00,
2013-03-17 11:35:00,14.1,0.9,30.36,SSW,196,9.0,9.0,55,0.00,,---,0.00,VWS V13.01,2013-03-17 16:35:00,
2013-03-17 11:40:00,14.7,0.3,30.36,SSW,196,7.0,9.0,52,0.00,,---,0.00,VWS V13.01,2013-03-17 16:40:00,
2013-03-17 11:45:00,15.3,2.0,30.36,SE,129,2.0,10.0,55,0.00,,---,0.00,VWS V13.01,2013-03-17 16:45:00,
2013-03-17 11:50:00,15.0,0.6,30.36,ENE,78,2.0,10.0,52,0.00,,---,0.00,VWS V13.01,2013-03-17 16:50:00,
2013-03-17 11:55:00,15.5,1.4,30.36,ESE,109,0.0,10.0,53,0.00,,---,0.00,VWS V13.01,2013-03-17 16:55:00,
2013-03-17 12:00:00,15.8,0.5,30.36,South,181,2.0,10.0,50,0.00,,---,0.00,VWS V13.01,2013-03-17 17:00:00,
2013-03-17 12:05:00,16.2,2.1,30.36,ESE,110,2.0,2.0,53,0.00,,---,0.00,VWS V13.01,2013-03-17 17:05:00,
2013-03-17 12:10:00,16.1,1.2,30.35,SSW,197,0.0,4.0,51,0.00,,---,0.00,VWS V13.01,2013-03-17 17:10:00,
2013-03-17 12:15:00,17.1,2.5,30.35,SW,216,3.0,4.0,52,0.00,,---,0.00,VWS V13.01,2013-03-17 17:15:00,
2013-03-17 12:20:00,17.1,1.2,30.35,ESE,107,3.0,4.0,49,0.00,,---,0.00,VWS V13.01,2013-03-17 17:20:00,
2013-03-17 12:25:00,17.0,1.1,30.35,ENE,61,0.0,5.0,49,0.00,,---,0.00,VWS V13.01,2013-03-17 17:25:00,
2013-03-17 12:30:00,17.2,1.8,30.34,SSE,154,2.0,5.0,50,0.00,,---,0.00,VWS V13.01,2013-03-17 17:30:00,
2013-03-17 12:35:00,17.3,1.4,30.34,SSE,163,3.0,5.0,49,0.00,,---,0.00,VWS V13.01,2013-03-17 17:35:00,
2013-03-17 12:40:00,17.9,1.1,30.34,SSE,165,3.0,7.0,47,0.00,,---,0.00,VWS V13.01,2013-03-17 17:40:00,
2013-03-17 12:45:00,18.1,1.3,30.34,SW,222,5.0,8.0,47,0.00,,---,0.00,VWS V13.01,2013-03-17 17:45:00,
2013-03-17 12:50:00,18.4,1.1,30.34,SE,131,3.0,8.0,46,0.00,,---,0.00,VWS V13.01,2013-03-17 17:50:00,
2013-03-17 12:55:00,18.9,2.5,30.33,SSW,194,1.0,8.0,48,0.00,,---,0.00,VWS V13.01,2013-03-17 17:55:00,
2013-03-17 13:00:00,19.0,2.1,30.33,South,176,0.0,8.0,47,0.00,,---,0.00,VWS V13.01,2013-03-17 18:00:00,
2013-03-17 13:05:00,20.4,3.8,30.33,South,184,2.0,4.0,48,0.00,,---,0.00,VWS V13.01,2013-03-17 18:05:00,
2013-03-17 13:10:00,19.9,2.0,30.34,SSW,201,3.0,6.0,45,0.00,,---,0.00,VWS V13.01,2013-03-17 18:10:00,
2013-03-17 13:15:00,20.1,1.7,30.33,ESE,105,1.0,6.0,44,0.00,,---,0.00,VWS V13.01,2013-03-17 18:15:00,
2013-03-17 13:20:00,20.8,2.3,30.33,NE,41,1.0,6.0,44,0.00,,---,0.00,VWS V13.01,2013-03-17 18:20:00,
2013-03-17 13:25:00,20.4,2.9,30.33,SSE,157,3.0,7.0,46,0.00,,---,0.00,VWS V13.01,2013-03-17 18:25:00,
2013-03-17 13:30:00,20.5,3.0,30.32,ENE,66,4.0,7.0,46,0.00,,---,0.00,VWS V13.01,2013-03-17 18:30:00,
2013-03-17 13:35:00,20.4,1.5,30.32,SSE,163,0.0,4.0,43,0.00,,---,0.00,VWS V13.01,2013-03-17 18:35:00,
2013-03-17 13:40:00,20.4,1.5,30.32,SSE,148,0.0,4.0,43,0.00,,---,0.00,VWS V13.01,2013-03-17 18:40:00,
2013-03-17 13:45:00,21.7,2.7,30.31,NNE,27,0.0,4.0,43,0.00,,---,0.00,VWS V13.01,2013-03-17 18:45:00,
2013-03-17 13:51:00,22.2,4.1,30.31,SSW,198,0.0,5.0,45,0.00,,---,0.00,VWS V13.01,2013-03-17 18:51:00,
2013-03-17 13:56:00,22.2,2.6,30.31,ESE,115,1.0,6.0,42,0.00,,---,0.00,VWS V13.01,2013-03-17 18:56:00,
2013-03-17 14:01:00,21.7,2.7,30.31,ESE,105,1.0,9.0,43,0.00,,---,0.00,VWS V13.01,2013-03-17 19:01:00,
2013-03-17 14:06:00,22.0,1.9,30.31,ESE,117,0.0,5.0,41,0.00,,---,0.00,VWS V13.01,2013-03-17 19:06:00,
2013-03-17 14:11:00,22.3,3.2,30.31,South,171,1.0,5.0,43,0.00,,---,0.00,VWS V13.01,2013-03-17 19:11:00,
2013-03-17 14:16:00,22.1,2.0,30.30,SSW,205,6.0,7.0,41,0.00,,---,0.00,VWS V13.01,2013-03-17 19:16:00,
2013-03-17 14:21:00,22.3,2.7,30.30,ESE,123,4.0,7.0,42,0.00,,---,0.00,VWS V13.01,2013-03-17 19:21:00,
2013-03-17 14:26:00,22.6,3.0,30.30,South,177,1.0,7.0,42,0.00,,---,0.00,VWS V13.01,2013-03-17 19:26:00,
2013-03-17 14:31:00,23.0,4.3,30.30,East,101,2.0,7.0,44,0.00,,---,0.00,VWS V13.01,2013-03-17 19:31:00,
2013-03-17 14:36:00,22.7,2.5,30.29,SSE,150,0.0,3.0,41,0.00,,---,0.00,VWS V13.01,2013-03-17 19:36:00,
2013-03-17 14:41:00,22.8,3.7,30.29,NE,41,1.0,7.0,43,0.00,,---,0.00,VWS V13.01,2013-03-17 19:41:00,
2013-03-17 14:46:00,23.4,3.7,30.29,SW,215,1.0,7.0,42,0.00,,---,0.00,VWS V13.01,2013-03-17 19:46:00,
2013-03-17 14:51:00,23.1,1.8,30.28,SSW,197,5.0,8.0,39,0.00,,---,0.00,VWS V13.01,2013-03-17 19:51:00,
2013-03-17 14:56:00,23.3,3.1,30.28,SSE,150,0.0,8.0,41,0.00,,---,0.00,VWS V13.01,2013-03-17 19:56:00,
2013-03-17 15:01:00,23.8,4.1,30.28,East,96,3.0,8.0,42,0.01,,---,0.01,VWS V13.01,2013-03-17 20:01:00,
2013-03-17 15:06:00,23.6,3.4,30.28,WSW,238,2.0,3.0,41,0.01,,---,0.01,VWS V13.01,2013-03-17 20:06:00,
2013-03-17 15:11:00,23.9,3.6,30.28,South,177,3.0,5.0,41,0.01,,---,0.01,VWS V13.01,2013-03-17 20:11:00,
2013-03-17 15:16:00,24.0,4.2,30.28,SSW,194,3.0,7.0,42,0.01,,---,0.01,VWS V13.01,2013-03-17 20:16:00,
2013-03-17 15:21:00,24.3,4.5,30.28,South,190,5.0,7.0,42,0.01,,---,0.01,VWS V13.01,2013-03-17 20:21:00,
2013-03-17 15:26:00,24.3,3.5,30.27,SSW,209,3.0,7.0,40,0.01,,---,0.01,VWS V13.01,2013-03-17 20:26:00,
2013-03-17 15:31:00,23.7,2.4,30.27,SSW,202,3.0,9.0,39,0.01,,---,0.01,VWS V13.01,2013-03-17 20:31:00,
2013-03-17 15:37:00,23.9,2.6,30.27,East,99,3.0,4.0,39,0.01,,---,0.01,VWS V13.01,2013-03-17 20:37:00,
2013-03-17 15:42:00,24.1,3.3,30.27,South,175,5.0,6.0,40,0.01,,---,0.01,VWS V13.01,2013-03-17 20:42:00,
2013-03-17 15:47:00,24.0,2.1,30.26,SSW,198,2.0,6.0,38,0.01,,---,0.01,VWS V13.01,2013-03-17 20:47:00,
2013-03-17 15:52:00,24.4,3.6,30.27,SSE,168,4.0,6.0,40,0.01,,---,0.01,VWS V13.01,2013-03-17 20:52:00,
2013-03-17 15:57:00,24.6,3.7,30.27,SSE,165,3.0,6.0,40,0.01,,---,0.01,VWS V13.01,2013-03-17 20:57:00,
2013-03-17 16:02:00,24.4,3.6,30.26,South,173,6.0,11.0,40,0.01,,---,0.01,VWS V13.01,2013-03-17 21:02:00,
2013-03-17 16:07:00,24.7,3.3,30.26,South,170,0.0,5.0,39,0.00,,---,0.01,VWS V13.01,2013-03-17 21:07:00,
2013-03-17 16:12:00,24.7,3.3,30.26,SSW,194,0.0,6.0,39,0.00,,---,0.01,VWS V13.01,2013-03-17 21:12:00,
2013-03-17 16:17:00,24.8,3.4,30.26,SSW,209,5.0,9.0,39,0.00,,---,0.01,VWS V13.01,2013-03-17 21:17:00,
2013-03-17 16:22:00,24.5,2.5,30.26,South,182,5.0,12.0,38,0.00,,---,0.01,VWS V13.01,2013-03-17 21:22:00,
2013-03-17 16:27:00,24.9,2.9,30.25,SSE,164,1.0,12.0,38,0.00,,---,0.01,VWS V13.01,2013-03-17 21:27:00,
2013-03-17 16:38:00,24.9,2.9,30.25,South,180,3.0,12.0,38,0.00,,---,0.01,VWS V13.01,2013-03-17 21:38:00,
2013-03-17 16:43:00,24.3,2.4,30.24,SSW,209,3.0,6.0,38,0.00,,---,0.01,VWS V13.01,2013-03-17 21:43:00,
2013-03-17 16:48:00,24.5,2.0,30.24,East,98,1.0,8.0,37,0.00,,---,0.01,VWS V13.01,2013-03-17 21:48:00,
2013-03-17 16:53:00,24.3,2.4,30.24,SE,137,0.0,8.0,38,0.00,,---,0.01,VWS V13.01,2013-03-17 21:53:00,
2013-03-17 16:58:00,24.5,2.5,30.24,South,175,4.0,9.0,38,0.00,,---,0.01,VWS V13.01,2013-03-17 21:58:00,
2013-03-17 17:03:00,24.1,1.6,30.23,SSE,161,2.0,2.0,37,0.00,,---,0.01,VWS V13.01,2013-03-17 22:03:00,
2013-03-17 17:08:00,24.3,2.4,30.23,SSE,165,1.0,5.0,38,0.00,,---,0.01,VWS V13.01,2013-03-17 22:08:00,
2013-03-17 17:13:00,24.4,2.5,30.23,SW,215,4.0,5.0,38,0.00,,---,0.01,VWS V13.01,2013-03-17 22:13:00,
2013-03-17 17:18:00,24.3,2.4,30.23,SSW,198,3.0,6.0,38,0.00,,---,0.01,VWS V13.01,2013-03-17 22:18:00,
2013-03-17 17:23:00,24.1,2.2,30.23,SSW,192,3.0,9.0,38,0.00,,---,0.01,VWS V13.01,2013-03-17 22:23:00,
2013-03-17 17:28:00,24.0,2.1,30.23,SE,145,0.0,9.0,38,0.00,,---,0.01,VWS V13.01,2013-03-17 22:28:00,
2013-03-17 17:38:00,24.3,2.9,30.23,SE,146,0.0,0.0,39,0.00,,---,0.01,VWS V13.01,2013-03-17 22:38:00,
2013-03-17 17:43:00,24.3,2.4,30.23,South,180,0.0,4.0,38,0.00,,---,0.01,VWS V13.01,2013-03-17 22:43:00,
2013-03-17 17:48:00,24.1,2.7,30.23,SSW,199,12.0,12.0,39,0.00,,---,0.01,VWS V13.01,2013-03-17 22:48:00,
2013-03-17 17:53:00,23.9,2.0,30.23,South,177,2.0,12.0,38,0.00,,---,0.01,VWS V13.01,2013-03-17 22:53:00,
2013-03-17 17:58:00,23.6,1.7,30.23,SSW,196,2.0,12.0,38,0.00,,---,0.01,VWS V13.01,2013-03-17 22:58:00,
2013-03-17 18:03:00,23.3,1.5,30.22,SSW,195,0.0,0.0,38,0.00,,---,0.01,VWS V13.01,2013-03-17 23:03:00,
2013-03-17 18:08:00,23.1,1.3,30.22,South,173,0.0,3.0,38,0.00,,---,0.01,VWS V13.01,2013-03-17 23:08:00,
2013-03-17 18:13:00,23.0,1.2,30.22,SE,144,3.0,4.0,38,0.00,,---,0.01,VWS V13.01,2013-03-17 23:13:00,
2013-03-17 18:18:00,23.0,1.2,30.22,SSW,198,0.0,4.0,38,0.00,,---,0.01,VWS V13.01,2013-03-17 23:18:00,
2013-03-17 18:23:00,23.0,1.2,30.22,SE,132,3.0,4.0,38,0.00,,---,0.01,VWS V13.01,2013-03-17 23:23:00,
2013-03-17 18:28:00,23.0,1.8,30.21,SSE,153,0.0,4.0,39,0.00,,---,0.01,VWS V13.01,2013-03-17 23:28:00,
2013-03-17 18:33:00,22.8,2.1,30.21,SSE,165,0.0,1.0,40,0.00,,---,0.01,VWS V13.01,2013-03-17 23:33:00,
2013-03-17 18:38:00,22.7,2.0,30.21,SSE,164,1.0,1.0,40,0.00,,---,0.01,VWS V13.01,2013-03-17 23:38:00,
2013-03-17 18:43:00,22.5,1.8,30.21,SSE,164,0.0,2.0,40,0.00,,---,0.01,VWS V13.01,2013-03-17 23:43:00,
2013-03-17 18:48:00,22.3,2.2,30.20,South,177,0.0,2.0,41,0.00,,---,0.01,VWS V13.01,2013-03-17 23:48:00,
2013-03-17 18:53:00,22.3,2.2,30.21,SSW,192,0.0,3.0,41,0.00,,---,0.01,VWS V13.01,2013-03-17 23:53:00,
2013-03-17 18:58:00,21.9,1.8,30.21,South,190,0.0,3.0,41,0.00,,---,0.01,VWS V13.01,2013-03-17 23:58:00,
2013-03-17 19:03:00,21.7,1.6,30.21,SSE,168,1.0,2.0,41,0.00,,---,0.01,VWS V13.01,2013-03-18 00:03:00,
2013-03-17 19:08:00,21.5,0.9,30.21,South,181,1.0,3.0,40,0.00,,---,0.01,VWS V13.01,2013-03-18 00:08:00,
2013-03-17 19:13:00,21.3,1.8,30.21,South,190,0.0,3.0,42,0.00,,---,0.01,VWS V13.01,2013-03-18 00:13:00,
2013-03-17 19:18:00,21.2,2.7,30.21,South,190,0.0,3.0,44,0.00,,---,0.01,VWS V13.01,2013-03-18 00:18:00,
2013-03-17 19:23:00,20.8,2.3,30.21,South,190,0.0,3.0,44,0.00,,---,0.01,VWS V13.01,2013-03-18 00:23:00,
2013-03-17 19:28:00,20.7,2.7,30.21,SSE,159,0.0,3.0,45,0.00,,---,0.01,VWS V13.01,2013-03-18 00:28:00,
2013-03-17 19:33:00,20.6,3.6,30.21,SSE,159,0.0,0.0,47,0.00,,---,0.01,VWS V13.01,2013-03-18 00:33:00,
2013-03-17 19:38:00,20.3,2.8,30.21,South,176,2.0,2.0,46,0.00,,---,0.01,VWS V13.01,2013-03-18 00:38:00,
2013-03-17 19:43:00,20.2,2.7,30.21,South,177,1.0,2.0,46,0.00,,---,0.01,VWS V13.01,2013-03-18 00:43:00,
2013-03-17 19:48:00,20.1,4.0,30.21,South,178,0.0,2.0,49,0.00,,---,0.01,VWS V13.01,2013-03-18 00:48:00,